KB9ZI Weather Reports


Display with metric or nautical units.
time (UTC)temp
F
wind
direction
speed
MPH
gust
MPH
rain 1hr
in
rain 24hr
in
rain mn
in
humidity
%
barometer
mb
20260509055326 50 309 0.0 0.0 0.00 0.00 0.00 58 1002.4
20260509055130 50 309 0.0 0.0 0.00 0.00 0.00 57 1002.5
20260509055003 50 309 0.0 0.0 0.00 0.00 0.00 58 1002.5
20260509054927 50 309 0.0 0.0 0.00 0.00 0.00 58 1002.5
20260509054726 50 309 0.0 0.0 0.00 0.00 0.00 56 1002.6
20260509054629 50 309 0.0 0.0 0.00 0.00 0.00 56 1002.6
20260509054503 50 309 0.0 0.0 0.00 0.00 0.00 56 1002.7
20260509054326 51 309 0.0 0.0 0.00 0.00 0.00 56 1002.7
20260509054127 51 309 0.0 0.0 0.00 0.00 0.00 58 1002.8
20260509054000 51 309 0.0 0.0 0.00 0.00 0.00 58 1002.8
20260509053928 51 309 0.0 0.0 0.00 0.00 0.00 57 1002.8
20260509053809 51 309 0.0 0.0 0.00 0.00 0.00 59 1002.8
20260509053759 51 309 0.0 0.0 0.00 0.00 0.00 56 1002.7
20260509053724 51 309 0.0 0.0 0.00 0.00 0.00 59 1002.7
20260509053326 51 309 0.0 0.0 0.00 0.00 0.00 60 1002.8
20260509053129 52 309 0.0 0.0 0.00 0.00 0.00 59 1002.9
20260509053002 52 309 0.0 0.0 0.00 0.00 0.00 60 1002.8
20260509052927 52 309 0.0 0.0 0.00 0.00 0.00 62 1002.8
20260509052726 52 309 0.0 0.0 0.00 0.00 0.00 61 1002.9
20260509052528 53 309 0.0 0.0 0.00 0.00 0.00 57 1002.8
20260509052502 52 309 0.0 0.0 0.00 0.00 0.00 57 1002.7
20260509052328 53 309 0.0 0.0 0.00 0.00 0.00 55 1002.7
20260509052225 53 309 0.0 0.0 0.00 0.00 0.00 53 1002.7
20260509052002 53 309 0.0 0.0 0.00 0.00 0.00 52 1002.7
20260509051927 53 309 0.0 0.0 0.00 0.00 0.00 52 1002.7
20260509051727 53 309 0.0 0.0 0.00 0.00 0.00 50 1002.7
20260509051529 54 309 0.0 0.0 0.00 0.00 0.00 51 1002.8
20260509051501 54 309 0.0 0.0 0.00 0.00 0.00 51 1002.7
20260509051328 54 309 0.0 0.0 0.00 0.00 0.00 51 1002.8
20260509051128 54 309 0.0 0.0 0.00 0.00 0.00 52 1002.9
20260509051001 54 309 0.0 0.0 0.00 0.00 0.00 52 1002.9
20260509050929 54 309 0.0 0.0 0.00 0.00 0.00 52 1002.9
20260509050727 55 309 0.0 0.0 0.00 0.00 0.00 54 1003.0
20260509050626 55 309 0.0 0.0 0.00 0.00 0.00 52 1002.9
20260509050501 55 309 0.0 0.0 0.00 0.00 0.00 52 1003.0
20260509050326 55 309 0.0 0.0 0.00 0.00 0.00 52 1002.9
20260509050126 55 309 0.0 0.0 0.00 0.00 0.00 55 1003.1
20260509050002 56 309 0.0 0.0 0.00 0.00 0.00 57 1003.1
20260509045927 56 309 0.0 0.0 0.00 0.00 0.00 57 1003.1
20260509045726 56 309 0.0 0.0 0.00 0.00 0.00 54 1003.2
20260509045501 56 309 0.0 0.0 0.00 0.00 0.00 56 1003.1
20260509045327 56 309 0.0 0.0 0.00 0.00 0.00 57 1003.1
20260509045126 56 309 0.0 0.0 0.00 0.00 0.00 55 1003.1
20260509045002 56 309 0.0 0.0 0.00 0.00 0.00 53 1003.1
20260509044927 56 309 0.0 1.0 0.00 0.00 0.00 53 1003.1
20260509044725 56 309 0.0 1.0 0.00 0.00 0.00 51 1003.1
20260509044625 57 309 0.0 1.0 0.00 0.00 0.00 53 1003.1
20260509044502 57 309 0.0 1.0 0.00 0.00 0.00 52 1003.1
20260509044326 57 309 0.0 1.0 0.00 0.00 0.00 52 1003.1
20260509044127 57 309 0.0 1.0 0.00 0.00 0.00 53 1003.1
20260509044002 57 309 0.0 1.0 0.00 0.00 0.00 52 1003.2
20260509043928 57 309 0.0 1.0 0.00 0.00 0.00 52 1003.2
20260509043726 57 309 0.0 1.0 0.00 0.00 0.00 48 1003.2
20260509043527 57 309 0.0 1.0 0.00 0.00 0.00 45 1003.2
20260509043501 57 309 0.0 1.0 0.00 0.00 0.00 45 1003.1
20260509043327 57 309 0.0 1.0 0.00 0.00 0.00 43 1003.2
20260509043127 57 309 0.0 1.0 0.00 0.00 0.00 45 1003.3
20260509043032 58 309 0.0 1.0 0.00 0.00 0.00 44 1003.2
20260509043003 58 309 0.0 1.0 0.00 0.00 0.00 44 1003.2
20260509042727 58 309 0.0 1.0 0.00 0.00 0.00 44 1003.3
20260509042502 58 309 0.0 1.0 0.00 0.00 0.00 42 1003.3
20260509042327 58 309 0.0 1.0 0.00 0.00 0.00 42 1003.3
20260509042127 58 309 0.0 1.0 0.00 0.00 0.00 42 1003.3
20260509041927 58 309 0.0 2.0 0.00 0.00 0.00 42 1003.3
20260509041727 58 309 0.0 2.0 0.00 0.00 0.00 42 1003.2
20260509041525 58 309 0.0 2.0 0.00 0.00 0.00 42 1003.2
20260509041434 58 309 0.0 2.0 0.00 0.00 0.00 43 1003.2
20260509041324 59 309 0.0 2.0 0.00 0.00 0.00 43 1003.2
20260509041125 59 309 0.0 2.0 0.00 0.00 0.00 44 1003.2
20260509040924 59 309 0.0 2.0 0.00 0.00 0.00 44 1003.2
20260509040722 59 309 0.0 2.0 0.00 0.00 0.00 42 1003.1
20260509040523 59 309 0.0 2.0 0.00 0.00 0.00 41 1003.1
20260509040430 59 309 0.0 2.0 0.00 0.00 0.00 41 1003.2
20260509040418 59 309 0.0 2.0 0.00 0.00 0.00 42 1003.2
20260509040123 59 309 0.0 2.0 0.00 0.00 0.00 41 1003.2
20260509035923 59 310 0.0 2.0 0.00 0.00 0.00 42 1003.3
20260509035722 59 310 0.0 2.0 0.00 0.00 0.00 40 1003.2
20260509035522 59 317 0.0 2.0 0.00 0.00 0.00 41 1003.2
20260509035429 59 329 0.0 2.0 0.00 0.00 0.00 41 1003.2
20260509035321 59 329 0.0 2.0 0.00 0.00 0.00 41 1003.2
20260509035116 59 329 0.0 2.0 0.00 0.00 0.00 40 1003.1
20260509034929 60 336 0.0 2.0 0.00 0.00 0.00 40 1003.3
20260509034910 60 336 0.0 2.0 0.00 0.00 0.00 40 1003.2
20260509034805 60 247 0.0 2.0 0.00 0.00 0.00 41 1003.2
20260509034510 60 247 0.0 2.0 0.00 0.00 0.00 40 1003.2
20260509034429 60 247 0.0 2.0 0.00 0.00 0.00 41 1003.2
20260509034310 60 247 0.0 2.0 0.00 0.00 0.00 41 1003.1
20260509034109 60 247 0.0 3.0 0.00 0.00 0.00 40 1003.2
20260509033909 60 247 0.0 3.0 0.00 0.00 0.00 40 1003.2
20260509033710 60 247 0.0 3.0 0.00 0.00 0.00 39 1003.1
20260509033507 60 247 0.0 3.0 0.00 0.00 0.00 39 1003.2
20260509033428 60 247 0.0 3.0 0.00 0.00 0.00 39 1003.2
20260509033315 60 217 0.0 6.0 0.00 0.00 0.00 39 1003.2
20260509033307 60 247 0.0 3.0 0.00 0.00 0.00 40 1003.2
20260509033227 61 113 0.0 6.0 0.00 0.00 0.00 40 1003.1
20260509032906 61 111 0.0 6.0 0.00 0.00 0.00 39 1003.0
20260509032708 61 192 0.0 6.0 0.00 0.00 0.00 40 1003.1
20260509032505 61 192 0.0 6.0 0.00 0.00 0.00 40 1003.0
20260509032426 61 192 0.0 6.0 0.00 0.00 0.00 39 1003.0
20260509032307 61 0 0.0 6.0 0.00 0.00 0.00 39 1002.9
20260509032106 61 250 0.0 4.0 0.00 0.00 0.00 38 1003.0
20260509031925 61 213 0.0 3.0 0.00 0.00 0.00 40 1003.0
20260509031905 61 214 0.0 3.0 0.00 0.00 0.00 40 1003.1
20260509031802 61 259 0.0 3.0 0.00 0.00 0.00 39 1002.9
20260509031504 61 255 0.0 3.0 0.00 0.00 0.00 39 1003.0
20260509031425 61 255 0.0 3.0 0.00 0.00 0.00 39 1003.0
20260509031307 61 257 0.0 3.0 0.00 0.00 0.00 39 1002.9
20260509031106 62 161 0.0 3.0 0.00 0.00 0.00 40 1002.9
20260509030923 62 161 0.0 3.0 0.00 0.00 0.00 40 1002.8
20260509030850 62 161 0.0 5.0 0.00 0.00 0.00 40 1002.8
20260509030647 62 164 0.0 5.0 0.00 0.00 0.00 38 1002.8
20260509030445 62 192 0.0 5.0 0.00 0.00 0.00 39 1002.8
20260509030410 62 92 0.0 5.0 0.00 0.00 0.00 39 1002.8
20260509030245 62 37 0.0 5.0 0.00 0.00 0.00 38 1002.8
20260509030144 62 39 0.0 5.0 0.00 0.00 0.00 38 1002.9
20260509025904 62 251 0.0 4.0 0.00 0.00 0.00 37 1002.7
20260509025846 63 254 0.0 7.0 0.00 0.00 0.00 37 1002.7
20260509025631 63 238 0.0 7.0 0.00 0.00 0.00 37 1002.8
20260509025406 63 238 0.0 7.0 0.00 0.00 0.00 37 1002.8
20260509025227 63 278 0.0 7.0 0.00 0.00 0.00 38 1002.8
20260509025028 63 241 0.0 7.0 0.00 0.00 0.00 38 1002.7
20260509024859 63 271 0.0 7.0 0.00 0.00 0.00 38 1002.7
20260509024826 63 245 0.0 5.0 0.00 0.00 0.00 38 1002.7
20260509024627 63 254 0.0 5.0 0.00 0.00 0.00 37 1002.7
20260509024527 63 252 0.0 6.0 0.00 0.00 0.00 37 1002.6
20260509024359 63 261 0.0 6.0 0.00 0.00 0.00 37 1002.6
20260509024225 63 285 0.0 6.0 0.00 0.00 0.00 38 1002.6
20260509024023 63 245 0.0 6.0 0.00 0.00 0.00 37 1002.7
20260509023900 63 265 0.0 6.0 0.00 0.00 0.00 37 1002.6
20260509023806 63 269 0.0 6.0 0.00 0.00 0.00 37 1002.4
20260509023608 63 248 0.0 6.0 0.00 0.00 0.00 37 1002.5
20260509023407 63 251 0.0 6.0 0.00 0.00 0.00 37 1002.5
20260509023358 63 251 0.0 6.0 0.00 0.00 0.00 37 1002.5
20260509023205 64 196 0.0 6.0 0.00 0.00 0.00 36 1002.5
20260509023002 64 196 0.0 7.0 0.00 0.00 0.00 37 1002.5
20260509022913 64 219 0.0 7.0 0.00 0.00 0.00 37 1002.5
20260509022858 64 224 0.0 7.0 0.00 0.00 0.00 37 1002.6
20260509022602 64 250 0.0 7.0 0.00 0.00 0.00 37 1002.5
20260509022400 64 254 0.0 7.0 0.00 0.00 0.00 36 1002.5
20260509022158 64 257 0.0 7.0 0.00 0.00 0.00 35 1002.3
20260509021956 64 261 0.0 6.0 0.00 0.00 0.00 36 1002.3
20260509021856 64 261 0.0 6.0 0.00 0.00 0.00 36 1002.4
20260509021749 64 261 0.0 6.0 0.00 0.00 0.00 36 1002.3
20260509021551 64 244 0.0 6.0 0.00 0.00 0.00 35 1002.2
20260509021348 64 265 0.0 5.0 0.00 0.00 0.00 36 1002.3
20260509021249 64 252 0.0 5.0 0.00 0.00 0.00 36 1002.1
20260509020949 64 264 0.0 5.0 0.00 0.00 0.00 37 1002.1
20260509020848 64 247 0.0 5.0 0.00 0.00 0.00 36 1002.1
20260509020747 64 247 0.0 5.0 0.00 0.00 0.00 36 1002.0
20260509020548 64 240 0.0 6.0 0.00 0.00 0.00 36 1002.0
20260509020450 64 237 0.0 6.0 0.00 0.00 0.00 36 1002.0
20260509020346 64 237 0.0 6.0 0.00 0.00 0.00 36 1002.0
20260509020146 65 240 0.0 6.0 0.00 0.00 0.00 36 1001.9
20260509015945 65 213 0.0 6.0 0.00 0.00 0.00 35 1002.0
20260509015846 64 216 0.0 6.0 0.00 0.00 0.00 35 1001.9
20260509015746 65 227 0.0 6.0 0.00 0.00 0.00 36 1002.0
20260509015544 65 250 0.0 5.0 0.00 0.00 0.00 35 1001.9
20260509015348 65 226 0.0 5.0 0.00 0.00 0.00 34 1001.8
20260509015136 65 250 0.0 5.0 0.00 0.00 0.00 34 1001.9
20260509014938 65 217 0.0 13.0 0.00 0.00 0.00 34 1001.8
20260509014844 65 159 0.0 13.0 0.00 0.00 0.00 35 1001.8
20260509014835 65 217 0.0 13.0 0.00 0.00 0.00 35 1001.8
20260509014534 65 227 0.0 13.0 0.00 0.00 0.00 34 1001.8
20260509014335 65 250 0.0 13.0 0.00 0.00 0.00 34 1001.8
20260509014134 65 254 0.0 13.0 0.00 0.00 0.00 33 1001.7
20260509013933 65 252 0.0 5.0 0.00 0.00 0.00 34 1001.7
20260509013830 65 252 0.0 5.0 0.00 0.00 0.00 34 1001.7
20260509013735 65 252 0.0 5.0 0.00 0.00 0.00 33 1001.7
20260509013532 66 254 0.0 5.0 0.00 0.00 0.00 33 1001.6
20260509013331 66 241 0.0 7.0 0.00 0.00 0.00 34 1001.6
20260509013227 66 237 0.0 7.0 0.00 0.00 0.00 33 1001.6
20260509012931 66 241 0.0 7.0 0.00 0.00 0.00 32 1001.6
20260509012833 66 233 0.0 7.0 0.00 0.00 0.00 31 1001.5
20260509012732 66 252 0.0 7.0 0.00 0.00 0.00 32 1001.5
20260509012631 66 254 0.0 6.0 0.00 0.00 0.00 31 1001.5
20260509012616 66 276 0.0 7.0 0.00 0.00 0.00 31 1001.5
20260509012124 66 233 0.0 6.0 0.00 0.00 0.00 32 1001.4
20260509011924 67 274 0.0 6.0 0.00 0.00 0.00 31 1001.4
20260509011833 67 223 0.0 6.0 0.00 0.00 0.00 31 1001.5
20260509011726 67 216 0.0 6.0 0.00 0.00 0.00 31 1001.5
20260509011626 67 255 0.0 5.0 0.00 0.00 0.00 30 1001.5
20260509011608 67 254 0.0 5.0 0.00 0.00 0.00 31 1001.5
20260509011325 67 255 0.0 5.0 0.00 0.00 0.00 30 1001.5
20260509011106 67 255 0.0 6.0 0.00 0.00 0.00 30 1001.5
20260509010903 67 248 0.0 7.0 0.00 0.00 0.00 31 1001.4
20260509010828 67 243 0.0 9.0 0.00 0.00 0.00 31 1001.4
20260509010804 67 241 0.0 9.0 0.00 0.00 0.00 31 1001.4
20260509010608 68 247 0.0 11.0 0.00 0.00 0.00 29 1001.4
20260509010552 68 247 0.0 9.0 0.00 0.00 0.00 29 1001.4
20260509010305 68 243 0.0 11.0 0.00 0.00 0.00 29 1001.4
20260509010034 68 235 0.0 11.0 0.00 0.00 0.00 30 1001.3
20260509005833 68 233 0.0 11.0 0.00 0.00 0.00 31 1001.4
20260509005814 68 235 0.0 11.0 0.00 0.00 0.00 31 1001.4
20260509005634 68 258 0.0 11.0 0.00 0.00 0.00 30 1001.4
20260509005432 68 255 0.0 11.0 0.00 0.00 0.00 29 1001.3
20260509005318 68 262 0.0 11.0 0.00 0.00 0.00 30 1001.4
20260509005231 68 251 0.0 11.0 0.00 0.00 0.00 30 1001.4
20260509005127 68 243 0.0 11.0 0.00 0.00 0.00 31 1001.3
20260509004831 69 254 0.0 6.0 0.00 0.00 0.00 31 1001.2
20260509004815 68 254 0.0 6.0 0.00 0.00 0.00 31 1001.2
20260509004631 69 154 0.0 9.0 0.00 0.00 0.00 31 1001.3
20260509004529 69 233 0.0 9.0 0.00 0.00 0.00 31 1001.3
20260509004309 69 233 0.0 9.0 0.00 0.00 0.00 30 1001.2
20260509004230 69 259 0.0 9.0 0.00 0.00 0.00 31 1001.2
20260509004031 69 247 0.0 9.0 0.00 0.00 0.00 30 1001.2
20260509003830 69 251 0.0 9.0 0.00 0.00 0.00 31 1001.2
20260509003805 69 257 0.0 9.0 0.00 0.00 0.00 30 1001.2
20260509003630 69 252 0.0 9.0 0.00 0.00 0.00 30 1001.2
20260509003428 69 272 0.0 9.0 0.00 0.00 0.00 30 1001.2
20260509003305 69 278 0.0 9.0 0.00 0.00 0.00 30 1001.2
20260509003229 69 264 0.0 9.0 0.00 0.00 0.00 30 1001.2
20260509003027 69 227 0.0 9.0 0.00 0.00 0.00 31 1001.2
20260509002926 69 238 0.0 9.0 0.00 0.00 0.00 32 1001.1
20260509002806 69 190 0.0 9.0 0.00 0.00 0.00 31 1001.2
20260509002630 69 248 0.0 9.0 0.00 0.00 0.00 31 1001.2
20260509002427 70 248 0.0 9.0 0.00 0.00 0.00 31 1001.4
20260509002305 70 254 0.0 9.0 0.00 0.00 0.00 31 1001.2
20260509002217 70 245 0.0 9.0 0.00 0.00 0.00 31 1001.2
20260509002017 70 248 0.0 12.0 0.00 0.00 0.00 31 1001.2
20260509001803 70 224 0.0 12.0 0.00 0.00 0.00 32 1001.2
20260509001620 70 248 0.0 12.0 0.00 0.00 0.00 31 1001.2
20260509001413 70 238 0.0 12.0 0.00 0.00 0.00 30 1001.3
20260509001319 70 261 0.0 12.0 0.00 0.00 0.00 31 1001.3
20260509001307 70 248 0.0 12.0 0.00 0.00 0.00 31 1001.3
20260509001046 70 228 0.0 10.0 0.00 0.00 0.00 32 1001.2
20260509001038 70 248 0.0 6.0 0.00 0.00 0.00 32 1001.2
20260509000735 70 257 0.0 10.0 0.00 0.00 0.00 31 1001.2
20260509000534 70 233 0.0 10.0 0.00 0.00 0.00 31 1001.1
20260509000337 71 213 0.0 10.0 0.00 0.00 0.00 30 1001.2
20260509000303 71 240 0.0 10.0 0.00 0.00 0.00 31 1001.2
20260509000241 71 264 0.0 10.0 0.00 0.00 0.00 30 1001.2
20260508235935 71 245 0.0 10.0 0.00 0.00 0.00 29 1001.1
20260508235802 71 264 0.0 10.0 0.00 0.00 0.00 31 1001.1
20260508235726 71 230 0.0 10.0 0.00 0.00 0.00 31 1001.1
20260508235528 71 243 0.0 10.0 0.00 0.00 0.00 32 1001.1
20260508235325 71 251 0.0 10.0 0.00 0.00 0.00 30 1001.2
20260508235301 71 251 0.0 10.0 0.00 0.00 0.00 31 1001.2
20260508235126 71 224 0.0 10.0 0.00 0.00 0.00 31 1001.2
20260508234926 71 244 0.0 6.0 0.00 0.00 0.00 32 1001.2
20260508234802 72 244 0.0 6.0 0.00 0.00 0.00 32 1001.1
20260508234724 71 217 0.0 6.0 0.00 0.00 0.00 32 1001.1
20260508234629 72 227 0.0 6.0 0.00 0.00 0.00 30 1001.2
20260508234329 72 245 0.0 6.0 0.00 0.00 0.00 32 1001.2
20260508234301 72 241 0.0 6.0 0.00 0.00 0.00 32 1001.2
20260508234126 72 224 0.0 10.0 0.00 0.00 0.00 31 1001.2
20260508233927 71 197 0.0 10.0 0.00 0.00 0.00 31 1001.2
20260508233802 71 173 0.0 10.0 0.00 0.00 0.00 34 1001.3
20260508233723 71 258 0.0 10.0 0.00 0.00 0.00 33 1001.3
20260508233522 71 266 0.0 10.0 0.00 0.00 0.00 32 1001.3
20260508233301 71 254 0.0 10.0 0.00 0.00 0.00 31 1001.2
20260508233122 71 257 0.0 10.0 0.00 0.00 0.00 31 1001.4
20260508233026 71 302 0.0 10.0 0.00 0.00 0.00 30 1001.3
20260508232805 71 247 0.0 10.0 0.00 0.00 0.00 32 1001.3
20260508232726 71 243 0.0 10.0 0.00 0.00 0.00 30 1001.3
20260508232522 71 255 0.0 10.0 0.00 0.00 0.00 30 1001.2
20260508232323 71 231 0.0 10.0 0.00 0.00 0.00 31 1001.3
20260508232301 71 230 0.0 10.0 0.00 0.00 0.00 31 1001.3
20260508232122 71 258 0.0 13.0 0.00 0.00 0.00 30 1001.2
20260508231919 71 240 0.0 13.0 0.00 0.00 0.00 30 1001.2
20260508231801 72 228 0.0 13.0 0.00 0.00 0.00 30 1001.2
20260508231721 72 230 0.0 13.0 0.00 0.00 0.00 30 1001.3
20260508231619 72 259 0.0 13.0 0.00 0.00 0.00 30 1001.3
20260508231318 72 230 0.0 13.0 0.00 0.00 0.00 29 1001.2
20260508231301 72 219 0.0 13.0 0.00 0.00 0.00 29 1001.2
20260508231116 72 233 0.0 13.0 0.00 0.00 0.00 29 1001.3
20260508230918 72 250 0.0 13.0 0.00 0.00 0.00 29 1001.3
20260508230800 72 271 0.0 13.0 0.00 0.00 0.00 30 1001.4
20260508230718 72 268 0.0 13.0 0.00 0.00 0.00 29 1001.3
20260508230515 72 219 0.0 14.0 0.00 0.00 0.00 29 1001.4
20260508230315 73 257 0.0 14.0 0.00 0.00 0.00 29 1001.3
20260508230301 73 252 0.0 14.0 0.00 0.00 0.00 29 1001.3
20260508230115 73 248 0.0 14.0 0.00 0.00 0.00 29 1001.2
20260508230015 73 0 0.0 14.0 0.00 0.00 0.00 29 1001.3
20260508225800 73 237 0.0 14.0 0.00 0.00 0.00 29 1001.3
20260508225714 73 243 0.0 14.0 0.00 0.00 0.00 29 1001.3
20260508225511 73 233 0.0 9.0 0.00 0.00 0.00 31 1001.3
20260508225306 73 238 0.0 7.0 0.00 0.00 0.00 31 1001.3
20260508225103 72 231 0.0 7.0 0.00 0.00 0.00 29 1001.3
20260508224902 72 241 0.0 7.0 0.00 0.00 0.00 30 1001.3
20260508224803 73 212 0.0 7.0 0.00 0.00 0.00 32 1001.3
20260508224708 73 212 0.0 10.0 0.00 0.00 0.00 32 1001.3
20260508224542 73 220 0.0 11.0 0.00 0.00 0.00 32 1001.2
20260508224245 73 237 0.0 11.0 0.00 0.00 0.00 32 1001.3
20260508224230 73 235 0.0 11.0 0.00 0.00 0.00 32 1001.3
20260508224045 73 258 0.0 11.0 0.00 0.00 0.00 31 1001.3
20260508223844 72 245 0.0 11.0 0.00 0.00 0.00 30 1001.2
20260508223730 73 257 0.0 11.0 0.00 0.00 0.00 30 1001.2
20260508223643 73 226 0.0 11.0 0.00 0.00 0.00 30 1001.1
20260508223443 73 241 0.0 11.0 0.00 0.00 0.00 32 1001.3
20260508223244 73 252 0.0 11.0 0.00 0.00 0.00 31 1001.2
20260508223230 73 220 0.0 11.0 0.00 0.00 0.00 31 1001.2
20260508223042 73 266 0.0 11.0 0.00 0.00 0.00 30 1001.2
20260508222938 73 231 0.0 7.0 0.00 0.00 0.00 32 1001.3
20260508222729 72 248 0.0 7.0 0.00 0.00 0.00 33 1001.4
20260508222642 72 240 0.0 10.0 0.00 0.00 0.00 30 1001.2
20260508222435 71 233 0.0 10.0 0.00 0.00 0.00 31 1001.2
20260508222229 71 248 0.0 10.0 0.00 0.00 0.00 31 1001.3
20260508222034 72 179 0.0 10.0 0.00 0.00 0.00 32 1001.3
20260508221834 72 240 0.0 15.0 0.00 0.00 0.00 29 1001.3
20260508221820 72 237 0.0 15.0 0.00 0.00 0.00 32 1001.3
20260508221752 72 254 0.0 6.0 0.00 0.00 0.00 33 1001.5
20260508221748 71 227 0.0 12.0 0.00 0.00 0.00 30 1001.8
20260508221737 72 244 0.0 15.0 0.00 0.00 0.00 31 1001.3
20260508221653 72 217 0.0 15.0 0.00 0.00 0.00 32 1001.3
20260508221613 72 235 0.0 15.0 0.00 0.00 0.00 30 1001.3
20260508221541 72 223 0.0 15.0 0.00 0.00 0.00 29 1001.3
20260508221512 72 248 0.0 9.0 0.00 0.00 0.00 31 1001.3
20260508221452 72 255 0.0 9.0 0.00 0.00 0.00 32 1001.4
20260508221434 71 234 0.0 9.0 0.00 0.00 0.00 32 1001.4
20260508221405 71 254 0.0 7.0 0.00 0.00 0.00 31 1001.5
20260508221332 71 252 0.0 7.0 0.00 0.00 0.00 30 1001.4
20260508221308 71 224 0.0 7.0 0.00 0.00 0.00 32 1001.5
20260508221226 72 237 0.0 6.0 0.00 0.00 0.00 32 1001.5
20260508221210 72 221 0.0 6.0 0.00 0.00 0.00 30 1001.4
20260508221142 72 238 0.0 6.0 0.00 0.00 0.00 34 1001.5
20260508221114 72 238 0.0 5.0 0.00 0.00 0.00 34 1001.6
20260508221042 71 221 0.0 5.0 0.00 0.00 0.00 33 1001.6
20260508221011 71 227 0.0 7.0 0.00 0.00 0.00 30 1001.6
20260508220959 71 262 0.0 7.0 0.00 0.00 0.00 29 1001.6
20260508220941 71 257 0.0 12.0 0.00 0.00 0.00 29 1001.6
20260508220914 71 233 0.0 12.0 0.00 0.00 0.00 31 1001.6
20260508220843 71 234 0.0 12.0 0.00 0.00 0.00 30 1001.7
20260508220750 71 252 0.0 12.0 0.00 0.00 0.00 30 1001.7
20260508220738 71 245 0.0 12.0 0.00 0.00 0.00 30 1001.7
20260508220705 71 255 0.0 11.0 0.00 0.00 0.00 30 1001.8
20260508220634 72 221 0.0 10.0 0.00 0.00 0.00 30 1001.7
20260508213229 71 262 0.0 10.0 0.00 0.00 0.00 32 1001.7
20260508213135 71 228 0.0 10.0 0.00 0.00 0.00 28 1001.8
20260508212934 70 251 0.0 7.0 0.00 0.00 0.00 30 1001.8
20260508212734 70 251 0.0 7.0 0.00 0.00 0.00 30 1001.9
20260508212527 70 251 0.0 7.0 0.00 0.00 0.00 30 1001.9
20260508212324 70 230 0.0 7.0 0.00 0.00 0.00 31 1002.0
20260508212229 70 245 0.0 7.0 0.00 0.00 0.00 30 1001.9
20260508212125 70 238 0.0 7.0 0.00 0.00 0.00 31 1001.9
20260508212033 70 252 0.0 6.0 0.00 0.00 0.00 30 1001.9
20260508211727 70 247 0.0 6.0 0.00 0.00 0.00 30 1001.9
20260508211524 70 204 0.0 5.0 0.00 0.00 0.00 34 1002.0
20260508211324 70 164 0.0 5.0 0.00 0.00 0.00 31 1002.0
20260508211227 70 164 0.0 5.0 0.00 0.00 0.00 30 1002.0
20260508211124 70 76 0.0 5.0 0.00 0.00 0.00 30 1002.0
20260508210924 71 234 0.0 5.0 0.00 0.00 0.00 34 1002.1
20260508210725 71 234 0.0 5.0 0.00 0.00 0.00 35 1002.1
20260508210526 71 233 0.0 5.0 0.00 0.00 0.00 29 1002.1
20260508210424 71 235 0.0 5.0 0.00 0.00 0.00 28 1002.2
20260508210227 71 238 0.0 5.0 0.00 0.00 0.00 29 1002.1
20260508210126 71 238 0.0 5.0 0.00 0.00 0.00 30 1002.2
20260508205925 71 262 0.0 6.0 0.00 0.00 0.00 32 1002.2
20260508205724 71 190 0.0 6.0 0.00 0.00 0.00 30 1002.2
20260508205523 70 254 0.0 9.0 0.00 0.00 0.00 28 1002.2
20260508205321 70 254 0.0 9.0 0.00 0.00 0.00 28 1002.3
20260508205222 71 230 0.0 10.0 0.00 0.00 0.00 29 1002.3
20260508205122 71 261 0.0 10.0 0.00 0.00 0.00 29 1002.3
20260508205033 71 235 0.0 10.0 0.00 0.00 0.00 30 1002.4
20260508204727 71 235 0.0 10.0 0.00 0.00 0.00 29 1002.3
20260508204527 71 217 0.0 10.0 0.00 0.00 0.00 29 1002.4
20260508204323 71 220 0.0 10.0 0.00 0.00 0.00 29 1002.4
20260508204226 71 196 0.0 9.0 0.00 0.00 0.00 29 1002.3
20260508204126 71 326 0.0 5.0 0.00 0.00 0.00 29 1002.4
20260508204032 70 238 0.0 9.0 0.00 0.00 0.00 33 1002.5
20260508204008 71 230 0.0 6.0 0.00 0.00 0.00 30 1002.5
20260508203938 70 238 0.0 9.0 0.00 0.00 0.00 33 1002.5
20260508203524 70 238 0.0 9.0 0.00 0.00 0.00 31 1002.6
20260508203427 70 238 0.0 9.0 0.00 0.00 0.00 29 1002.6
20260508203227 70 240 0.0 9.0 0.00 0.00 0.00 29 1002.5
20260508203124 70 244 0.0 9.0 0.00 0.00 0.00 29 1002.6
20260508203033 70 224 0.0 9.0 0.00 0.00 0.00 28 1002.6
20260508203005 70 268 0.0 9.0 0.00 0.00 0.00 29 1002.8
20260508202938 70 224 0.0 9.0 0.00 0.00 0.00 28 1002.6
20260508202524 71 248 0.0 7.0 0.00 0.00 0.00 29 1002.7
20260508202323 71 245 0.0 7.0 0.00 0.00 0.00 27 1002.8
20260508202229 71 210 0.0 9.0 0.00 0.00 0.00 28 1002.8
20260508202125 71 210 0.0 9.0 0.00 0.00 0.00 29 1002.8
20260508202017 70 255 0.0 9.0 0.00 0.00 0.00 29 1003.0
20260508202006 70 216 0.0 9.0 0.00 0.00 0.00 29 1002.8
20260508201938 70 255 0.0 9.0 0.00 0.00 0.00 29 1003.0
20260508201525 70 248 0.0 9.0 0.00 0.00 0.00 29 1003.0
20260508201427 71 251 0.0 9.0 0.00 0.00 0.00 29 1002.9
20260508201228 71 230 0.0 7.0 0.00 0.00 0.00 29 1002.9
20260508201124 71 243 0.0 7.0 0.00 0.00 0.00 32 1002.9
20260508200924 71 254 0.0 7.0 0.00 0.00 0.00 30 1003.0
20260508200727 71 234 0.0 7.0 0.00 0.00 0.00 31 1002.9
20260508200523 71 235 0.0 7.0 0.00 0.00 0.00 30 1003.0
20260508200325 71 244 0.0 6.0 0.00 0.00 0.00 28 1003.0
20260508200226 71 257 0.0 6.0 0.00 0.00 0.00 27 1003.2
20260508200122 71 251 0.0 6.0 0.00 0.00 0.00 31 1003.0
20260508200036 72 247 0.0 6.0 0.00 0.00 0.00 29 1003.1
20260508200031 72 247 0.0 6.0 0.00 0.00 0.00 29 1003.0
20260508200003 71 207 0.0 5.0 0.00 0.00 0.00 31 1003.0
20260508195518 73 340 0.0 6.0 0.00 0.00 0.00 31 1003.2
20260508195319 72 221 0.0 6.0 0.00 0.00 0.00 31 1003.2
20260508195227 73 172 0.0 6.0 0.00 0.00 0.00 28 1003.2
20260508195115 73 231 0.0 6.0 0.00 0.00 0.00 29 1003.2
20260508195030 72 233 0.0 6.0 0.00 0.00 0.00 28 1003.3
20260508195000 72 149 0.0 6.0 0.00 0.00 0.00 34 1003.3
20260508194709 72 266 0.0 6.0 0.00 0.00 0.00 28 1003.4
20260508194509 71 250 0.0 10.0 0.00 0.00 0.00 32 1003.4
20260508194307 70 234 0.0 10.0 0.00 0.00 0.00 29 1003.4
20260508194227 70 250 0.0 10.0 0.00 0.00 0.00 29 1003.4
20260508194103 70 250 0.0 10.0 0.00 0.00 0.00 29 1003.4
20260508194018 69 252 0.0 10.0 0.00 0.00 0.00 29 1003.5
20260508193953 69 252 0.0 10.0 0.00 0.00 0.00 29 1003.5
20260508193648 69 252 0.0 10.0 0.00 0.00 0.00 29 1003.5
20260508193449 69 241 0.0 9.0 0.00 0.00 0.00 32 1003.6
20260508193247 69 221 0.0 9.0 0.00 0.00 0.00 29 1003.6
20260508193226 69 220 0.0 9.0 0.00 0.00 0.00 29 1003.6
20260508193144 69 259 0.0 9.0 0.00 0.00 0.00 31 1003.6
20260508193028 69 259 0.0 9.0 0.00 0.00 0.00 31 1003.6
20260508192956 69 251 0.0 9.0 0.00 0.00 0.00 29 1003.7
20260508192647 69 204 0.0 9.0 0.00 0.00 0.00 31 1003.7
20260508192446 69 237 0.0 9.0 0.00 0.00 0.00 33 1003.7
20260508192246 69 237 0.0 10.0 0.00 0.00 0.00 29 1003.7
20260508192227 69 251 0.0 10.0 0.00 0.00 0.00 29 1003.7
20260508192045 69 248 0.0 10.0 0.00 0.00 0.00 28 1003.7
20260508191847 69 241 0.0 11.0 0.00 0.00 0.00 29 1003.7
20260508191719 69 255 0.0 11.0 0.00 0.00 0.00 31 1003.7
20260508191641 69 258 0.0 11.0 0.00 0.00 0.00 30 1003.7
20260508191604 69 309 0.0 11.0 0.00 0.00 0.00 29 1003.7
20260508191515 69 210 0.0 11.0 0.00 0.00 0.00 29 1003.7
20260508191437 69 216 0.0 11.0 0.00 0.00 0.00 29 1003.6
20260508191040 69 227 0.0 11.0 0.00 0.00 0.00 30 1003.8
20260508190840 69 219 0.0 10.0 0.00 0.00 0.00 30 1003.9
20260508190719 69 252 0.0 10.0 0.00 0.00 0.00 27 1003.8
20260508190642 69 257 0.0 10.0 0.00 0.00 0.00 28 1003.8
20260508190522 71 255 0.0 9.0 0.00 0.00 0.00 31 1003.8
20260508190502 70 248 0.0 9.0 0.00 0.00 0.00 28 1003.9
20260508190434 71 212 0.0 9.0 0.00 0.00 0.00 31 1003.8
20260508190033 71 255 0.0 9.0 0.00 0.00 0.00 29 1003.8
20260508185832 71 285 0.0 9.0 0.00 0.00 0.00 32 1003.8
20260508185712 71 254 0.0 9.0 0.00 0.00 0.00 27 1003.8
20260508185632 71 0 0.0 9.0 0.00 0.00 0.00 30 1003.8
20260508185515 71 266 0.0 9.0 0.00 0.00 0.00 28 1003.8
20260508185456 71 271 0.0 9.0 0.00 0.00 0.00 30 1003.7
20260508185428 71 258 0.0 9.0 0.00 0.00 0.00 29 1003.9
20260508185126 71 259 0.0 9.0 0.00 0.00 0.00 29 1003.9
20260508184828 70 261 0.0 9.0 0.00 0.00 0.00 32 1003.8
20260508184711 70 265 0.0 9.0 0.00 0.00 0.00 28 1003.9
20260508184629 69 282 0.0 9.0 0.00 0.00 0.00 31 1003.9
20260508184427 69 247 0.0 9.0 0.00 0.00 0.00 29 1004.0
20260508184227 70 228 0.0 12.0 0.00 0.00 0.00 29 1003.9
20260508184205 70 251 0.0 12.0 0.00 0.00 0.00 29 1003.9
20260508184031 70 248 0.0 12.0 0.00 0.00 0.00 27 1004.0
20260508184000 70 276 0.0 13.0 0.00 0.00 0.00 29 1004.2
20260508183934 70 238 0.0 13.0 0.00 0.00 0.00 28 1004.0
20260508183623 70 309 0.0 13.0 0.00 0.00 0.00 29 1004.2
20260508183526 71 250 0.0 14.0 0.00 0.00 0.00 30 1004.3
20260508183222 70 262 0.0 14.0 0.00 0.00 0.00 28 1004.3
20260508183207 70 262 0.0 14.0 0.00 0.00 0.00 28 1004.2
20260508183009 70 230 0.0 17.0 0.00 0.00 0.00 29 1004.2
20260508183002 70 223 0.0 17.0 0.00 0.00 0.00 29 1004.2
20260508182930 70 217 0.0 17.0 0.00 0.00 0.00 29 1004.3
20260508182610 71 245 0.0 17.0 0.00 0.00 0.00 30 1004.3
20260508182408 71 235 0.0 17.0 0.00 0.00 0.00 31 1004.3
20260508182203 70 237 0.0 17.0 0.00 0.00 0.00 30 1004.2
20260508182011 70 231 0.0 11.0 0.00 0.00 0.00 28 1004.3
20260508182006 70 235 0.0 13.0 0.00 0.00 0.00 30 1004.3
20260508181934 70 233 0.0 13.0 0.00 0.00 0.00 29 1004.3
20260508181605 70 250 0.0 11.0 0.00 0.00 0.00 28 1004.4
20260508181403 70 265 0.0 10.0 0.00 0.00 0.00 26 1004.5
20260508181203 70 252 0.0 10.0 0.00 0.00 0.00 29 1004.4
20260508181002 69 271 0.0 10.0 0.00 0.00 0.00 27 1004.5
20260508180806 70 259 0.0 10.0 0.00 0.00 0.00 28 1004.6
20260508180708 70 258 0.0 10.0 0.00 0.00 0.00 28 1004.6
20260508180605 70 258 0.0 10.0 0.00 0.00 0.00 28 1004.7
20260508180459 70 272 0.0 10.0 0.00 0.00 0.00 29 1004.7
20260508180201 69 227 0.0 12.0 0.00 0.00 0.00 31 1004.7
20260508180133 69 237 0.0 12.0 0.00 0.00 0.00 31 1004.7
20260508180002 69 234 0.0 16.0 0.00 0.00 0.00 28 1004.8
20260508175800 69 231 0.0 16.0 0.00 0.00 0.00 31 1004.7
20260508175632 69 292 0.0 16.0 0.00 0.00 0.00 27 1004.7
20260508175601 70 251 0.0 16.0 0.00 0.00 0.00 32 1004.8
20260508175401 70 223 0.0 16.0 0.00 0.00 0.00 34 1004.8
20260508175202 70 250 0.0 16.0 0.00 0.00 0.00 30 1004.8
20260508175136 70 271 0.0 16.0 0.00 0.00 0.00 29 1004.8
20260508174959 70 250 0.0 14.0 0.00 0.00 0.00 30 1004.9
20260508174856 69 259 0.0 14.0 0.00 0.00 0.00 30 1004.9
20260508174630 70 231 0.0 14.0 0.00 0.00 0.00 29 1005.0
20260508174556 70 281 0.0 14.0 0.00 0.00 0.00 29 1004.9
20260508174355 70 268 0.0 14.0 0.00 0.00 0.00 30 1004.9
20260508174153 70 282 0.0 10.0 0.00 0.00 0.00 29 1004.9
20260508174131 70 223 0.0 10.0 0.00 0.00 0.00 28 1004.9
20260508173955 70 230 0.0 10.0 0.00 0.00 0.00 29 1005.1
20260508173752 70 257 0.0 12.0 0.00 0.00 0.00 28 1005.2
20260508173631 70 164 0.0 12.0 0.00 0.00 0.00 35 1005.1
20260508173552 70 0 0.0 12.0 0.00 0.00 0.00 33 1005.1
20260508173353 69 8 0.0 13.0 0.00 0.00 0.00 30 1005.2
20260508173246 69 206 0.0 13.0 0.00 0.00 0.00 30 1005.2
20260508173131 69 202 0.0 13.0 0.00 0.00 0.00 30 1005.2
20260508172950 69 245 0.0 13.0 0.00 0.00 0.00 29 1005.4
20260508172750 69 245 0.0 13.0 0.00 0.00 0.00 32 1005.3
20260508172631 68 234 0.0 13.0 0.00 0.00 0.00 29 1005.4
20260508172551 69 227 0.0 13.0 0.00 0.00 0.00 31 1005.3
20260508172349 68 252 0.0 10.0 0.00 0.00 0.00 35 1005.4
20260508172153 68 290 0.0 10.0 0.00 0.00 0.00 29 1005.4
20260508172132 68 283 0.0 10.0 0.00 0.00 0.00 29 1005.4
20260508171950 69 233 0.0 10.0 0.00 0.00 0.00 33 1005.5
20260508171932 69 237 0.0 7.0 0.00 0.00 0.00 31 1005.5
20260508171928 69 217 0.0 5.0 0.00 0.00 0.00 34 1005.5
20260508171903 69 248 0.0 10.0 0.00 0.00 0.00 31 1005.5
20260508171347 69 195 0.0 5.0 0.00 0.00 0.00 31 1005.5
20260508171147 69 285 0.0 7.0 0.00 0.00 0.00 32 1005.5
20260508171131 69 272 0.0 9.0 0.00 0.00 0.00 32 1005.5
20260508170946 68 240 0.0 9.0 0.00 0.00 0.00 34 1005.6
20260508170933 67 250 0.0 9.0 0.00 0.00 0.00 33 1005.7
20260508170901 67 247 0.0 9.0 0.00 0.00 0.00 31 1005.7
20260508170544 67 234 0.0 9.0 0.00 0.00 0.00 36 1005.8
20260508170335 67 234 0.0 9.0 0.00 0.00 0.00 32 1005.7
20260508170133 67 214 0.0 11.0 0.00 0.00 0.00 32 1005.8
20260508170129 67 217 0.0 11.0 0.00 0.00 0.00 32 1005.8
20260508170035 67 234 0.0 11.0 0.00 0.00 0.00 32 1005.9
20260508165928 67 320 0.0 16.0 0.00 0.00 0.00 32 1005.9
20260508165856 67 240 0.0 11.0 0.00 0.00 0.00 32 1005.9
20260508165529 67 224 0.0 16.0 0.00 0.00 0.00 31 1005.9
20260508165326 67 226 0.0 16.0 0.00 0.00 0.00 31 1005.9
20260508165130 68 257 0.0 16.0 0.00 0.00 0.00 33 1006.0
20260508165124 68 255 0.0 16.0 0.00 0.00 0.00 33 1006.0
20260508164924 68 255 0.0 16.0 0.00 0.00 0.00 36 1006.0
20260508164723 67 193 0.0 14.0 0.00 0.00 0.00 32 1006.0
20260508164628 67 274 0.0 7.0 0.00 0.00 0.00 36 1005.9
20260508164620 66 210 0.0 7.0 0.00 0.00 0.00 34 1006.0
20260508164326 65 210 0.0 7.0 0.00 0.00 0.00 30 1006.0
20260508164122 65 210 0.0 7.0 0.00 0.00 0.00 30 1006.1
20260508163923 66 235 0.0 7.0 0.00 0.00 0.00 35 1006.1
20260508163919 65 252 0.0 7.0 0.00 0.00 0.00 33 1006.3
20260508163852 65 224 0.0 7.0 0.00 0.00 0.00 33 1006.2
20260508163510 66 292 0.0 7.0 0.00 0.00 0.00 34 1006.3
20260508163307 66 230 0.0 7.0 0.00 0.00 0.00 35 1006.2
20260508163130 66 251 0.0 7.0 0.00 0.00 0.00 39 1006.2
20260508163107 66 251 0.0 7.0 0.00 0.00 0.00 39 1006.1
20260508163012 65 217 0.0 7.0 0.00 0.00 0.00 36 1006.2
20260508162916 65 220 0.0 7.0 0.00 0.00 0.00 35 1006.2
20260508162841 65 252 0.0 7.0 0.00 0.00 0.00 36 1006.2
20260508162506 65 241 0.0 7.0 0.00 0.00 0.00 35 1006.2
20260508162306 64 271 0.0 7.0 0.00 0.00 0.00 35 1006.3
20260508162125 64 264 0.0 7.0 0.00 0.00 0.00 35 1006.4
20260508162105 64 252 0.0 7.0 0.00 0.00 0.00 36 1006.3
20260508161934 65 261 0.0 7.0 0.00 0.00 0.00 36 1006.4
20260508161923 65 220 0.0 7.0 0.00 0.00 0.00 35 1006.3
20260508161855 65 261 0.0 7.0 0.00 0.00 0.00 36 1006.4
20260508161506 65 219 0.0 7.0 0.00 0.00 0.00 36 1006.3
20260508161239 65 217 0.0 13.0 0.00 0.00 0.00 36 1006.4
20260508161120 65 224 0.0 13.0 0.00 0.00 0.00 36 1006.4
20260508161031 65 245 0.0 13.0 0.00 0.00 0.00 39 1006.5
20260508160829 65 254 0.0 13.0 0.00 0.00 0.00 36 1006.5
20260508160621 65 257 0.0 13.0 0.00 0.00 0.00 37 1006.5
20260508160430 65 207 0.0 13.0 0.00 0.00 0.00 37 1006.5
20260508160229 65 248 0.0 9.0 0.00 0.00 0.00 38 1006.4
20260508160139 64 248 0.0 6.0 0.00 0.00 0.00 39 1006.4
20260508160122 65 237 0.0 9.0 0.00 0.00 0.00 42 1006.6
20260508155832 63 237 0.0 6.0 0.00 0.00 0.00 41 1006.5
20260508155622 62 224 0.0 6.0 0.00 0.00 0.00 40 1006.6
20260508155433 62 224 0.0 7.0 0.00 0.00 0.00 40 1006.7
20260508155232 62 265 0.0 12.0 0.00 0.00 0.00 38 1006.6
20260508155114 62 264 0.0 12.0 0.00 0.00 0.00 39 1006.7
20260508155034 62 214 0.0 12.0 0.00 0.00 0.00 39 1006.7
20260508154833 62 186 0.0 12.0 0.00 0.00 0.00 39 1006.7
20260508154623 62 240 0.0 12.0 0.00 0.00 0.00 39 1006.8
20260508154614 62 212 0.0 12.0 0.00 0.00 0.00 39 1006.8
20260508154520 62 248 0.0 12.0 0.00 0.00 0.00 37 1006.7
20260508154205 62 241 0.0 10.0 0.00 0.00 0.00 37 1006.7
20260508154116 62 252 0.0 10.0 0.00 0.00 0.00 37 1006.7
20260508154005 62 223 0.0 12.0 0.00 0.00 0.00 37 1006.7
20260508153802 62 241 0.0 12.0 0.00 0.00 0.00 37 1006.8
20260508153603 62 259 0.0 12.0 0.00 0.00 0.00 39 1006.8
20260508153401 62 199 0.0 12.0 0.00 0.00 0.00 40 1006.8
20260508153202 62 219 0.0 12.0 0.00 0.00 0.00 36 1006.9
20260508153104 62 219 0.0 12.0 0.00 0.00 0.00 39 1006.9
20260508153003 62 237 0.0 11.0 0.00 0.00 0.00 40 1006.9
20260508152736 62 221 0.0 11.0 0.00 0.00 0.00 38 1006.8
20260508152604 62 281 0.0 12.0 0.00 0.00 0.00 37 1006.9
20260508152534 62 213 0.0 12.0 0.00 0.00 0.00 38 1006.9
20260508152330 62 223 0.0 12.0 0.00 0.00 0.00 38 1007.0
20260508152131 61 238 0.0 12.0 0.00 0.00 0.00 40 1006.9
20260508152106 61 251 0.0 12.0 0.00 0.00 0.00 40 1006.9
20260508152032 61 226 0.0 12.0 0.00 0.00 0.00 40 1006.9
20260508151727 60 233 0.0 12.0 0.00 0.00 0.00 39 1006.9
20260508151604 60 190 0.0 10.0 0.00 0.00 0.00 39 1006.9
20260508151524 60 262 0.0 10.0 0.00 0.00 0.00 39 1006.9
20260508151324 60 196 0.0 10.0 0.00 0.00 0.00 39 1007.0
20260508151125 60 258 0.0 10.0 0.00 0.00 0.00 39 1007.0
20260508151103 60 258 0.0 10.0 0.00 0.00 0.00 39 1007.1
20260508150906 60 244 0.0 10.0 0.00 0.00 0.00 39 1007.0
20260508150709 60 223 0.0 10.0 0.00 0.00 0.00 39 1007.0
20260508150603 60 183 0.0 11.0 0.00 0.00 0.00 41 1007.1
20260508150511 60 186 0.0 11.0 0.00 0.00 0.00 40 1007.1
20260508150409 59 206 0.0 11.0 0.00 0.00 0.00 41 1007.1
20260508145906 59 206 0.0 11.0 0.00 0.00 0.00 40 1007.1
20260508145701 59 223 0.0 12.0 0.00 0.00 0.00 39 1007.1
20260508145601 59 257 0.0 12.0 0.00 0.00 0.00 39 1007.1
20260508145501 59 220 0.0 12.0 0.00 0.00 0.00 40 1007.1
20260508145359 59 247 0.0 12.0 0.00 0.00 0.00 40 1007.1
20260508145101 59 240 0.0 12.0 0.00 0.00 0.00 44 1007.2
20260508144901 59 224 0.0 12.0 0.00 0.00 0.00 41 1007.1
20260508144702 59 206 0.0 12.0 0.00 0.00 0.00 40 1007.2
20260508144602 59 226 0.0 12.0 0.00 0.00 0.00 41 1007.2
20260508144501 59 230 0.0 12.0 0.00 0.00 0.00 40 1007.2
20260508144301 59 207 0.0 10.0 0.00 0.00 0.00 41 1007.4
20260508144102 58 212 0.0 10.0 0.00 0.00 0.00 41 1007.2
20260508143838 58 228 0.0 12.0 0.00 0.00 0.00 42 1007.3
20260508143738 58 258 0.0 12.0 0.00 0.00 0.00 42 1007.2
20260508143546 58 204 0.0 12.0 0.00 0.00 0.00 41 1007.3
20260508143436 58 206 0.0 12.0 0.00 0.00 0.00 42 1007.3
20260508143230 58 193 0.0 12.0 0.00 0.00 0.00 42 1007.3
20260508143046 58 193 0.0 12.0 0.00 0.00 0.00 42 1007.2
20260508143030 58 192 0.0 12.0 0.00 0.00 0.00 42 1007.2
20260508142830 58 216 0.0 12.0 0.00 0.00 0.00 43 1007.2
20260508142631 58 200 0.0 12.0 0.00 0.00 0.00 42 1007.3
20260508142545 58 209 0.0 12.0 0.00 0.00 0.00 42 1007.3
20260508142430 57 214 0.0 12.0 0.00 0.00 0.00 42 1007.2
20260508142229 57 195 0.0 10.0 0.00 0.00 0.00 44 1007.3
20260508142129 57 206 0.0 10.0 0.00 0.00 0.00 44 1007.3
20260508142044 57 192 0.0 10.0 0.00 0.00 0.00 44 1007.3
20260508141826 57 206 0.0 10.0 0.00 0.00 0.00 44 1007.2
20260508141624 57 214 0.0 10.0 0.00 0.00 0.00 42 1007.3
20260508141546 57 213 0.0 14.0 0.00 0.00 0.00 43 1007.4
20260508141424 57 202 0.0 14.0 0.00 0.00 0.00 43 1007.3
20260508141225 56 240 0.0 14.0 0.00 0.00 0.00 43 1007.4
20260508141045 56 199 0.0 14.0 0.00 0.00 0.00 44 1007.4
20260508141023 56 245 0.0 14.0 0.00 0.00 0.00 43 1007.4
20260508140823 56 206 0.0 14.0 0.00 0.00 0.00 42 1007.4
20260508140616 56 209 0.0 14.0 0.00 0.00 0.00 43 1007.3
20260508140542 56 200 0.0 14.0 0.00 0.00 0.00 43 1007.3
20260508140417 56 197 0.0 14.0 0.00 0.00 0.00 43 1007.4
20260508140345 56 241 0.0 14.0 0.00 0.00 0.00 43 1007.3
20260508140339 56 241 0.0 14.0 0.00 0.00 0.00 42 1007.4
20260508140321 56 195 0.0 14.0 0.00 0.00 0.00 42 1007.3
20260508135850 56 221 0.0 12.0 0.00 0.00 0.00 42 1007.4
20260508135839 56 264 0.0 11.0 0.00 0.00 0.00 42 1007.4
20260508135809 56 221 0.0 12.0 0.00 0.00 0.00 43 1007.4
20260508135413 56 206 0.0 12.0 0.00 0.00 0.00 43 1007.4
20260508135214 56 203 0.0 12.0 0.00 0.00 0.00 43 1007.5
20260508135041 56 220 0.0 12.0 0.00 0.00 0.00 44 1007.4
20260508135013 56 235 0.0 12.0 0.00 0.00 0.00 44 1007.5
20260508134844 55 221 0.0 10.0 0.00 0.00 0.00 43 1007.5
20260508134831 55 258 0.0 12.0 0.00 0.00 0.00 42 1007.5
20260508134803 55 226 0.0 9.0 0.00 0.00 0.00 43 1007.5
20260508134506 55 193 0.0 11.0 0.00 0.00 0.00 43 1007.5
20260508134205 55 206 0.0 11.0 0.00 0.00 0.00 43 1007.5
20260508134038 55 257 0.0 11.0 0.00 0.00 0.00 44 1007.5
20260508134005 55 248 0.0 11.0 0.00 0.00 0.00 44 1007.5
20260508133839 54 210 0.0 11.0 0.00 0.00 0.00 45 1007.6
20260508133827 55 197 0.0 11.0 0.00 0.00 0.00 43 1007.5
20260508133758 54 183 0.0 11.0 0.00 0.00 0.00 45 1007.6
20260508133403 54 207 0.0 13.0 0.00 0.00 0.00 44 1007.6
20260508133203 54 214 0.0 13.0 0.00 0.00 0.00 44 1007.6
20260508133036 54 199 0.0 13.0 0.00 0.00 0.00 43 1007.6
20260508133005 54 217 0.0 13.0 0.00 0.00 0.00 43 1007.6
20260508132858 53 214 0.0 13.0 0.00 0.00 0.00 43 1007.6
20260508132838 53 214 0.0 13.0 0.00 0.00 0.00 43 1007.6
20260508132825 54 234 0.0 13.0 0.00 0.00 0.00 43 1007.6
20260508132405 53 259 0.0 13.0 0.00 0.00 0.00 44 1007.5
20260508132135 53 216 0.0 13.0 0.00 0.00 0.00 44 1007.6
20260508132034 53 203 0.0 13.0 0.00 0.00 0.00 44 1007.6
20260508131933 53 202 0.0 13.0 0.00 0.00 0.00 43 1007.5
20260508131836 53 233 0.0 13.0 0.00 0.00 0.00 44 1007.6
20260508131821 53 220 0.0 13.0 0.00 0.00 0.00 43 1007.6
20260508131745 53 233 0.0 13.0 0.00 0.00 0.00 44 1007.6
20260508131331 53 237 0.0 13.0 0.00 0.00 0.00 45 1007.6
20260508131131 53 248 0.0 13.0 0.00 0.00 0.00 43 1007.8
20260508131050 53 195 0.0 13.0 0.00 0.00 0.00 43 1007.6
20260508131031 53 200 0.0 13.0 0.00 0.00 0.00 43 1007.6
20260508130832 53 245 0.0 13.0 0.00 0.00 0.00 44 1007.6
20260508130820 53 195 0.0 13.0 0.00 0.00 0.00 44 1007.6
20260508130749 53 245 0.0 13.0 0.00 0.00 0.00 44 1007.6
20260508130332 53 219 0.0 13.0 0.00 0.00 0.00 44 1007.6
20260508130132 53 207 0.0 10.0 0.00 0.00 0.00 44 1007.8
20260508130034 53 216 0.0 9.0 0.00 0.00 0.00 46 1007.6
20260508125932 53 238 0.0 9.0 0.00 0.00 0.00 46 1007.6
20260508125805 52 234 0.0 12.0 0.00 0.00 0.00 45 1007.6
20260508125743 52 234 0.0 12.0 0.00 0.00 0.00 45 1007.6
20260508125327 52 217 0.0 12.0 0.00 0.00 0.00 44 1007.6
20260508125125 52 212 0.0 13.0 0.00 0.00 0.00 44 1007.6
20260508125035 52 247 0.0 13.0 0.00 0.00 0.00 45 1007.6
20260508124925 51 230 0.0 13.0 0.00 0.00 0.00 44 1007.8
20260508124724 51 245 0.0 13.0 0.00 0.00 0.00 45 1007.8
20260508124526 51 237 0.0 13.0 0.00 0.00 0.00 45 1007.8
20260508124324 51 227 0.0 13.0 0.00 0.00 0.00 45 1007.8
20260508124124 51 200 0.0 13.0 0.00 0.00 0.00 45 1007.6
20260508124040 51 185 0.0 13.0 0.00 0.00 0.00 45 1007.6
20260508124029 51 182 0.0 13.0 0.00 0.00 0.00 46 1007.8
20260508123724 51 183 0.0 13.0 0.00 0.00 0.00 45 1007.8
20260508123526 50 207 0.0 13.0 0.00 0.00 0.00 45 1007.8
20260508123324 50 202 0.0 13.0 0.00 0.00 0.00 45 1007.8
20260508123125 50 207 0.0 12.0 0.00 0.00 0.00 46 1007.8
20260508123035 50 223 0.0 12.0 0.00 0.00 0.00 46 1007.8
20260508122924 50 202 0.0 12.0 0.00 0.00 0.00 46 1007.8
20260508122725 50 199 0.0 12.0 0.00 0.00 0.00 49 1007.8
20260508122525 49 175 0.0 12.0 0.00 0.00 0.00 46 1007.6
20260508122424 49 204 0.0 11.0 0.00 0.00 0.00 46 1007.8
20260508122124 49 233 0.0 11.0 0.00 0.00 0.00 46 1007.8
20260508122033 49 220 0.0 11.0 0.00 0.00 0.00 46 1007.6
20260508121924 49 204 0.0 11.0 0.00 0.00 0.00 46 1007.6
20260508121724 49 228 0.0 11.0 0.00 0.00 0.00 46 1007.5
20260508121526 49 195 0.0 11.0 0.00 0.00 0.00 47 1007.6
20260508121324 49 195 0.0 11.0 0.00 0.00 0.00 47 1007.6
20260508121125 49 220 0.0 9.0 0.00 0.00 0.00 47 1007.6
20260508121032 49 228 0.0 9.0 0.00 0.00 0.00 47 1007.6
20260508120924 49 199 0.0 9.0 0.00 0.00 0.00 47 1007.6
20260508120724 48 226 0.0 10.0 0.00 0.00 0.00 47 1007.6
20260508120526 48 206 0.0 10.0 0.00 0.00 0.00 47 1007.6
20260508120326 48 209 0.0 10.0 0.00 0.00 0.00 46 1007.5
20260508120147 48 226 0.0 10.0 0.00 0.00 0.00 46 1007.5
20260508120135 48 190 0.0 7.0 0.00 0.00 0.00 46 1007.5
20260508120130 48 234 0.0 10.0 0.00 0.00 0.00 47 1007.6
20260508120109 48 234 0.0 10.0 0.00 0.00 0.00 47 1007.6
20260508115809 48 234 0.0 7.0 0.00 0.00 0.00 47 1007.5
20260508115738 48 190 0.0 7.0 0.00 0.00 0.00 46 1007.5
20260508115325 48 207 0.0 7.0 0.00 0.00 0.00 47 1007.5
20260508115126 48 203 0.0 11.0 0.00 0.00 0.00 47 1007.5
20260508115031 48 210 0.0 11.0 0.00 0.00 0.00 47 1007.6
20260508114924 47 202 0.0 11.0 0.00 0.00 0.00 46 1007.5
20260508114825 47 223 0.0 11.0 0.00 0.00 0.00 47 1007.5
20260508114810 47 209 0.0 11.0 0.00 0.00 0.00 47 1007.5
20260508114740 47 223 0.0 11.0 0.00 0.00 0.00 47 1007.5
20260508114429 47 183 0.0 11.0 0.00 0.00 0.00 47 1007.5
20260508114125 47 197 0.0 7.0 0.00 0.00 0.00 47 1007.5
20260508114031 47 212 0.0 7.0 0.00 0.00 0.00 47 1007.5
20260508113924 47 206 0.0 7.0 0.00 0.00 0.00 47 1007.6
20260508113827 47 183 0.0 7.0 0.00 0.00 0.00 47 1007.5
20260508113810 47 190 0.0 7.0 0.00 0.00 0.00 48 1007.6
20260508113738 47 183 0.0 7.0 0.00 0.00 0.00 47 1007.5
20260508113324 47 200 0.0 7.0 0.00 0.00 0.00 47 1007.5
20260508113125 47 196 0.0 7.0 0.00 0.00 0.00 47 1007.6
20260508113031 47 161 0.0 7.0 0.00 0.00 0.00 48 1007.5
20260508112924 47 212 0.0 7.0 0.00 0.00 0.00 47 1007.6
20260508112824 47 200 0.0 9.0 0.00 0.00 0.00 48 1007.6
20260508112809 47 217 0.0 7.0 0.00 0.00 0.00 47 1007.6
20260508112738 47 200 0.0 9.0 0.00 0.00 0.00 48 1007.6
20260508112326 47 203 0.0 10.0 0.00 0.00 0.00 48 1007.6
20260508112125 47 203 0.0 10.0 0.00 0.00 0.00 48 1007.6
20260508112027 47 195 0.0 10.0 0.00 0.00 0.00 48 1007.6
20260508111924 47 190 0.0 10.0 0.00 0.00 0.00 48 1007.6
20260508111825 46 188 0.0 10.0 0.00 0.00 0.00 48 1007.6
20260508111527 46 204 0.0 10.0 0.00 0.00 0.00 49 1007.5
20260508111325 46 219 0.0 7.0 0.00 0.00 0.00 49 1007.6
20260508111124 46 226 0.0 7.0 0.00 0.00 0.00 49 1007.5
20260508111033 46 235 0.0 7.0 0.00 0.00 0.00 49 1007.5
20260508110924 46 220 0.0 7.0 0.00 0.00 0.00 50 1007.6
20260508110726 46 197 0.0 7.0 0.00 0.00 0.00 50 1007.6
20260508110525 45 193 0.0 7.0 0.00 0.00 0.00 50 1007.6
20260508110325 45 200 0.0 6.0 0.00 0.00 0.00 50 1007.6
20260508110225 45 204 0.0 6.0 0.00 0.00 0.00 50 1007.6
20260508110025 45 175 0.0 6.0 0.00 0.00 0.00 50 1007.5
20260508105924 45 186 0.0 6.0 0.00 0.00 0.00 50 1007.6
20260508105724 45 200 0.0 6.0 0.00 0.00 0.00 51 1007.6
20260508105527 45 199 0.0 6.0 0.00 0.00 0.00 51 1007.5
20260508105324 45 200 0.0 4.0 0.00 0.00 0.00 51 1007.5
20260508105124 45 195 0.0 4.0 0.00 0.00 0.00 51 1007.5
20260508105015 45 204 0.0 4.0 0.00 0.00 0.00 51 1007.6
20260508104926 44 212 0.0 4.0 0.00 0.00 0.00 52 1007.6
20260508104725 44 199 0.0 4.0 0.00 0.00 0.00 52 1007.6
20260508104525 44 204 0.0 4.0 0.00 0.00 0.00 52 1007.6
20260508104510 44 204 0.0 4.0 0.00 0.00 0.00 52 1007.5
20260508104324 44 206 0.0 5.0 0.00 0.00 0.00 52 1007.6
20260508104124 44 206 0.0 5.0 0.00 0.00 0.00 52 1007.6
20260508104031 44 206 0.0 5.0 0.00 0.00 0.00 52 1007.8
20260508104012 44 206 0.0 5.0 0.00 0.00 0.00 52 1007.8
20260508103724 44 206 0.0 5.0 0.00 0.00 0.00 53 1007.6
20260508103525 44 206 0.0 5.0 0.00 0.00 0.00 53 1007.6
20260508103509 44 206 0.0 5.0 0.00 0.00 0.00 53 1007.5
20260508103325 44 192 0.0 2.0 0.00 0.00 0.00 53 1007.6
20260508103301 44 192 0.0 2.0 0.00 0.00 0.00 53 1007.6
20260508103238 44 192 0.0 2.0 0.00 0.00 0.00 53 1007.6
20260508102925 44 192 0.0 2.0 0.00 0.00 0.00 53 1007.6
20260508102725 44 192 0.0 2.0 0.00 0.00 0.00 53 1007.8
20260508102504 43 192 0.0 2.0 0.00 0.00 0.00 53 1007.6
20260508102425 43 190 0.0 2.0 0.00 0.00 0.00 53 1007.6
20260508102306 43 190 0.0 1.0 0.00 0.00 0.00 53 1007.8
20260508102241 43 190 0.0 1.0 0.00 0.00 0.00 54 1007.6
20260508101925 43 190 0.0 1.0 0.00 0.00 0.00 53 1007.8
20260508101724 43 190 0.0 1.0 0.00 0.00 0.00 53 1007.8
20260508101525 43 190 0.0 2.0 0.00 0.00 0.00 53 1007.6
20260508101503 43 190 0.0 2.0 0.00 0.00 0.00 53 1007.8
20260508101325 43 190 0.0 2.0 0.00 0.00 0.00 54 1007.8
20260508101303 43 190 0.0 2.0 0.00 0.00 0.00 54 1007.9
20260508101237 43 190 0.0 2.0 0.00 0.00 0.00 54 1007.8
20260508100922 43 190 0.0 2.0 0.00 0.00 0.00 53 1007.9
20260508100721 43 190 0.0 2.0 0.00 0.00 0.00 53 1007.8
20260508100502 43 190 0.0 2.0 0.00 0.00 0.00 53 1007.8
20260508100320 44 190 0.0 2.0 0.00 0.00 0.00 53 1007.9
20260508100122 44 190 0.0 2.0 0.00 0.00 0.00 53 1007.9
20260508100006 44 190 0.0 2.0 0.00 0.00 0.00 53 1007.6
20260508095923 44 190 0.0 2.0 0.00 0.00 0.00 53 1007.6
20260508095809 44 190 0.0 1.0 0.00 0.00 0.00 53 1007.9
20260508095506 44 190 0.0 1.0 0.00 0.00 0.00 53 1007.8
20260508095431 44 190 0.0 1.0 0.00 0.00 0.00 53 1007.8
20260508095307 44 190 0.0 1.0 0.00 0.00 0.00 53 1007.8
20260508095110 44 190 0.0 1.0 0.00 0.00 0.00 53 1007.8
20260508094935 44 190 0.0 1.0 0.00 0.00 0.00 53 1007.8
20260508094910 44 190 0.0 1.0 0.00 0.00 0.00 53 1007.9
20260508094711 44 190 0.0 1.0 0.00 0.00 0.00 53 1007.9
20260508094509 44 190 0.0 1.0 0.00 0.00 0.00 52 1007.9
20260508094436 44 190 0.0 1.0 0.00 0.00 0.00 53 1007.9
20260508094308 44 190 0.0 1.0 0.00 0.00 0.00 52 1007.9
20260508094204 44 190 0.0 1.0 0.00 0.00 0.00 52 1007.9
20260508093909 44 190 0.0 1.0 0.00 0.00 0.00 52 1007.9
20260508093709 44 190 0.0 2.0 0.00 0.00 0.00 52 1007.9
20260508093509 44 190 0.0 2.0 0.00 0.00 0.00 52 1007.9
20260508093437 44 190 0.0 2.0 0.00 0.00 0.00 52 1007.9
20260508093306 44 190 0.0 2.0 0.00 0.00 0.00 52 1007.9
20260508093107 44 190 0.0 2.0 0.00 0.00 0.00 52 1007.9
20260508092934 44 190 0.0 3.0 0.00 0.00 0.00 52 1007.9
20260508092905 44 190 0.0 3.0 0.00 0.00 0.00 52 1007.9
20260508092702 44 190 0.0 3.0 0.00 0.00 0.00 52 1008.0
20260508092435 44 190 0.0 4.0 0.00 0.00 0.00 52 1008.0
20260508092301 44 190 0.0 4.0 0.00 0.00 0.00 51 1007.9
20260508092102 45 190 0.0 4.0 0.00 0.00 0.00 51 1007.9
20260508091929 45 190 0.0 4.0 0.00 0.00 0.00 52 1007.9
20260508091901 45 190 0.0 4.0 0.00 0.00 0.00 52 1007.9
20260508091801 45 190 0.0 4.0 0.00 0.00 0.00 52 1007.9
20260508091427 45 193 0.0 3.0 0.00 0.00 0.00 52 1007.9
20260508091258 45 193 0.0 3.0 0.00 0.00 0.00 52 1007.9
20260508091056 45 193 0.0 4.0 0.00 0.00 0.00 51 1007.9
20260508090925 45 193 0.0 4.0 0.00 0.00 0.00 51 1007.9
20260508090856 45 193 0.0 4.0 0.00 0.00 0.00 51 1008.0
20260508090700 45 197 0.0 4.0 0.00 0.00 0.00 51 1007.9
20260508090455 45 197 0.0 4.0 0.00 0.00 0.00 51 1008.0
20260508090422 45 197 0.0 4.0 0.00 0.00 0.00 51 1008.0
20260508090255 45 196 0.0 4.0 0.00 0.00 0.00 51 1008.0
20260508090156 45 197 0.0 6.0 0.00 0.00 0.00 51 1008.0
20260508085919 45 197 0.0 6.0 0.00 0.00 0.00 51 1008.0
20260508085850 45 199 0.0 6.0 0.00 0.00 0.00 51 1008.0
20260508085648 45 197 0.0 6.0 0.00 0.00 0.00 51 1008.0
20260508085449 45 186 0.0 6.0 0.00 0.00 0.00 51 1008.0
20260508085417 45 186 0.0 6.0 0.00 0.00 0.00 51 1008.0
20260508085247 45 183 0.0 6.0 0.00 0.00 0.00 51 1008.0
20260508085050 45 166 0.0 4.0 0.00 0.00 0.00 51 1008.0
20260508084914 45 182 0.0 4.0 0.00 0.00 0.00 52 1007.9
20260508084850 45 210 0.0 4.0 0.00 0.00 0.00 52 1007.9
20260508084647 45 209 0.0 4.0 0.00 0.00 0.00 52 1008.0
20260508084447 45 207 0.0 4.0 0.00 0.00 0.00 52 1007.9
20260508084411 45 216 0.0 4.0 0.00 0.00 0.00 52 1008.0
20260508084343 45 203 0.0 4.0 0.00 0.00 0.00 52 1008.0
20260508084044 44 203 0.0 4.0 0.00 0.00 0.00 52 1007.9
20260508083908 44 202 0.0 4.0 0.00 0.00 0.00 52 1008.0
20260508083846 44 202 0.0 4.0 0.00 0.00 0.00 52 1008.0
20260508083644 44 202 0.0 4.0 0.00 0.00 0.00 52 1007.9
20260508083443 44 200 0.0 4.0 0.00 0.00 0.00 52 1008.0
20260508083409 44 203 0.0 3.0 0.00 0.00 0.00 52 1008.0
20260508083241 44 203 0.0 3.0 0.00 0.00 0.00 52 1008.0
20260508083210 44 203 0.0 3.0 0.00 0.00 0.00 53 1007.9
20260508083147 44 203 0.0 3.0 0.00 0.00 0.00 52 1008.0
20260508082841 44 203 0.0 3.0 0.00 0.00 0.00 53 1007.9
20260508082734 44 216 0.0 2.0 0.00 0.00 0.00 53 1008.1
20260508082439 44 219 0.0 2.0 0.00 0.00 0.00 53 1008.1
20260508082407 44 179 0.0 2.0 0.00 0.00 0.00 53 1008.0
20260508082238 44 178 0.0 3.0 0.00 0.00 0.00 53 1008.0
20260508082207 44 175 0.0 3.0 0.00 0.00 0.00 54 1008.1
20260508082141 44 178 0.0 3.0 0.00 0.00 0.00 53 1008.0
20260508081837 44 175 0.0 3.0 0.00 0.00 0.00 53 1008.1
20260508081638 44 172 0.0 3.0 0.00 0.00 0.00 54 1008.1
20260508081437 44 173 0.0 3.0 0.00 0.00 0.00 54 1008.0
20260508081405 44 173 0.0 3.0 0.00 0.00 0.00 54 1008.2
20260508081241 44 186 0.0 2.0 0.00 0.00 0.00 55 1008.0
20260508081235 44 172 0.0 3.0 0.00 0.00 0.00 54 1008.1
20260508081203 44 192 0.0 2.0 0.00 0.00 0.00 55 1008.1
20260508080837 44 190 0.0 2.0 0.00 0.00 0.00 55 1008.1
20260508080635 44 190 0.0 2.0 0.00 0.00 0.00 55 1008.1
20260508080436 44 190 0.0 2.0 0.00 0.00 0.00 55 1008.1
20260508080404 44 190 0.0 2.0 0.00 0.00 0.00 55 1008.2
20260508080333 44 190 0.0 2.0 0.00 0.00 0.00 55 1008.2
20260508080203 44 190 0.0 2.0 0.00 0.00 0.00 55 1008.2
20260508080138 44 190 0.0 2.0 0.00 0.00 0.00 55 1008.2
20260508075830 44 190 0.0 2.0 0.00 0.00 0.00 55 1008.2
20260508075632 44 190 0.0 2.0 0.00 0.00 0.00 55 1008.2
20260508075402 44 190 0.0 2.0 0.00 0.00 0.00 55 1008.2
20260508075223 44 190 0.0 2.0 0.00 0.00 0.00 55 1008.2
20260508075201 44 190 0.0 2.0 0.00 0.00 0.00 55 1008.3
20260508075137 44 190 0.0 2.0 0.00 0.00 0.00 55 1008.2
20260508074823 44 190 0.0 2.0 0.00 0.00 0.00 56 1008.3
20260508074730 44 189 0.0 1.0 0.00 0.00 0.00 56 1008.2
20260508074404 44 189 0.0 2.0 0.00 0.00 0.00 55 1008.3
20260508074209 44 189 0.0 2.0 0.00 0.00 0.00 55 1008.3
20260508074158 44 189 0.0 2.0 0.00 0.00 0.00 55 1008.2
20260508074134 44 189 0.0 2.0 0.00 0.00 0.00 56 1008.3
20260508073808 44 189 0.0 2.0 0.00 0.00 0.00 55 1008.3
20260508073607 44 189 0.0 2.0 0.00 0.00 0.00 55 1008.4
20260508073401 44 189 0.0 2.0 0.00 0.00 0.00 55 1008.3
20260508073232 44 189 0.0 2.0 0.00 0.00 0.00 55 1008.3
20260508073207 44 189 0.0 2.0 0.00 0.00 0.00 55 1008.4
20260508073157 44 189 0.0 2.0 0.00 0.00 0.00 55 1008.4
20260508072806 44 189 0.0 2.0 0.00 0.00 0.00 55 1008.3
20260508072609 44 189 0.0 2.0 0.00 0.00 0.00 55 1008.4
20260508072400 44 189 0.0 2.0 0.00 0.00 0.00 55 1008.4
20260508072232 44 189 0.0 2.0 0.00 0.00 0.00 55 1008.5
20260508072206 44 189 0.0 2.0 0.00 0.00 0.00 55 1008.4
20260508072145 44 189 0.0 2.0 0.00 0.00 0.00 55 1008.4
20260508071804 44 189 0.0 2.0 0.00 0.00 0.00 55 1008.4
20260508071542 44 189 0.0 2.0 0.00 0.00 0.00 55 1008.4
20260508071342 44 189 0.0 3.0 0.00 0.00 0.00 55 1008.4
20260508071141 44 189 0.0 3.0 0.00 0.00 0.00 55 1008.5
20260508070942 44 188 0.0 3.0 0.00 0.00 0.00 55 1008.5
20260508070835 44 188 0.0 3.0 0.00 0.00 0.00 55 1008.5
20260508070740 44 186 0.0 3.0 0.00 0.00 0.00 56 1008.5
20260508070541 44 186 0.0 3.0 0.00 0.00 0.00 56 1008.5
20260508070442 44 186 0.0 2.0 0.00 0.00 0.00 56 1008.5
20260508070334 44 186 0.0 2.0 0.00 0.00 0.00 56 1008.5
20260508070140 44 185 0.0 2.0 0.00 0.00 0.00 56 1008.5
20260508065940 44 185 0.0 2.0 0.00 0.00 0.00 56 1008.5
20260508065834 44 185 0.0 2.0 0.00 0.00 0.00 56 1008.5
20260508065738 44 185 0.0 2.0 0.00 0.00 0.00 56 1008.6
20260508065543 44 183 0.0 2.0 0.00 0.00 0.00 56 1008.6
20260508065335 44 183 0.0 2.0 0.00 0.00 0.00 57 1008.5
20260508065136 44 186 0.0 2.0 0.00 0.00 0.00 57 1008.6
20260508064934 44 186 0.0 2.0 0.00 0.00 0.00 57 1008.6
20260508064845 44 186 0.0 2.0 0.00 0.00 0.00 56 1008.6
20260508064835 44 186 0.0 2.0 0.00 0.00 0.00 57 1008.6
20260508064537 44 186 0.0 2.0 0.00 0.00 0.00 56 1008.6
20260508064333 44 186 0.0 2.0 0.00 0.00 0.00 57 1008.6
20260508064234 43 186 0.0 2.0 0.00 0.00 0.00 57 1008.6
20260508063932 44 186 0.0 2.0 0.00 0.00 0.00 57 1008.7
20260508063832 44 186 0.0 2.0 0.00 0.00 0.00 57 1008.7
20260508063732 44 186 0.0 2.0 0.00 0.00 0.00 57 1008.6
20260508063636 44 186 0.0 1.0 0.00 0.00 0.00 57 1008.7
20260508063620 44 186 0.0 1.0 0.00 0.00 0.00 57 1008.8
20260508063548 44 186 0.0 1.0 0.00 0.00 0.00 57 1008.7
20260508063108 44 186 0.0 1.0 0.00 0.00 0.00 57 1008.7
20260508062908 44 186 0.0 1.0 0.00 0.00 0.00 56 1008.7
20260508062812 44 186 0.0 1.0 0.00 0.00 0.00 56 1008.8
20260508062713 44 186 0.0 1.0 0.00 0.00 0.00 56 1008.7
20260508062708 44 186 0.0 1.0 0.00 0.00 0.00 56 1008.7
20260508062622 44 186 0.0 1.0 0.00 0.00 0.00 56 1008.8
20260508062309 44 186 0.0 1.0 0.00 0.00 0.00 56 1008.8
20260508062107 44 186 0.0 2.0 0.00 0.00 0.00 56 1008.8
20260508061908 44 186 0.0 3.0 0.00 0.00 0.00 56 1008.8
20260508061810 44 186 0.0 3.0 0.00 0.00 0.00 57 1008.8
20260508061708 44 186 0.0 3.0 0.00 0.00 0.00 57 1008.8
20260508061613 44 186 0.0 3.0 0.00 0.00 0.00 58 1008.9
20260508061553 44 186 0.0 3.0 0.00 0.00 0.00 57 1008.8
20260508061309 44 186 0.0 3.0 0.00 0.00 0.00 58 1008.9
20260508061105 44 186 0.0 3.0 0.00 0.00 0.00 58 1008.9
20260508061004 44 185 0.0 1.0 0.00 0.00 0.00 57 1008.9
20260508060811 44 185 0.0 1.0 0.00 0.00 0.00 57 1008.9
20260508060705 44 185 0.0 1.0 0.00 0.00 0.00 57 1008.9
20260508060612 44 185 0.0 1.0 0.00 0.00 0.00 57 1008.8
20260508060550 44 185 0.0 1.0 0.00 0.00 0.00 57 1008.8
20260508060303 44 185 0.0 1.0 0.00 0.00 0.00 57 1008.9
20260508060209 44 185 0.0 1.0 0.00 0.00 0.00 56 1008.9
20260508055904 44 185 0.0 1.0 0.00 0.00 0.00 57 1008.9
20260508055807 44 185 0.0 1.0 0.00 0.00 0.00 57 1008.9
20260508055704 44 185 0.0 1.0 0.00 0.00 0.00 57 1008.9
20260508055509 44 185 0.0 2.0 0.00 0.00 0.00 57 1008.9